Tracking 20719 objects as of 24-May-2020
HD Live streaming from Space Station
objects crossing your sky now

BPA 1/SL-24 R/B

Track BPA 1/SL-24 R/B now!
10-day predictions


NORAD ID: 36600
Int'l Code: 2010-028C
Perigee: 720.6 km
Apogee: 1,274.6 km
Inclination: 98.3 °
Period: 104.9 minutes
Semi major axis: 7368 km
RCS: 6.6389 m2 (large)
Launch date: June 15, 2010
Source: Commonwealth of Independent States (former USSR) (CIS)
Launch site: Orenburg, Russia (OREN)

Note: This is a ROCKET BODY
aabbcc
Your satellite tracking list
Your tracking list is empty




NASA's NSSDC Master Catalog

Two Line Element Set (TLE):
1 36600U 10028C   20144.35986791 -.00000027  00000-0  31295-5 0  9990
2 36600  98.3060 259.5282 0375946 108.9997 319.6566 13.72545198497891
Source of the keplerian elements: AFSPC